sim
Sign-in with your pilot id or email,
or register
Callsign
Passwort

Schedule Details

Flight Number: RYR6131
Departure: Warsaw Modlin Airport (EPMO) at 05:35
Arrival: Fuerteventura Airport (GCFV) at 11:10
Route: Ryanair Passenger Schedule. Enter filed route here before submitting Pirep.

Weather Information
Getting current METAR information for EPMO 231100Z 31006KT 270V340 9999 BKN034 21/12 Q1019
Getting current METAR information for GCFV 231100Z 06015KT 9999 FEW020 24/19 Q1017

Schedule Frequency

Route Map